When you browse on this site, cookies collect data to enhance your experience and personalize the content and advertising you see.
Visit our Privacy Policy to learn more. By continuing to use the site, you agree to this use of cookies and data.

Hourly Weather Townsville

Today, 8 August, Saturday

Time Temperature Precipitation Wind Pressure Humidity
00:00 +25°C° 0.2 mm 1 mps 752 mmHg 84%
01:00 +25°C° 0.2 mm 1 mps 752 mmHg 83%
02:00 +25°C° 0 mm 1 mps 752 mmHg 81%
03:00 +24°C° 0 mm 1 mps 752 mmHg 80%
04:00 +24°C° 0 mm 1 mps 752 mmHg 79%
05:00 +23°C° 0 mm 2 mps 753 mmHg 75%
06:00 +22°C° 0 mm 3 mps 753 mmHg 70%
07:00 +21°C° 0 mm 4 mps 754 mmHg 66%
08:00 +22°C° 0 mm 4 mps 754 mmHg 56%
09:00 +23°C° 0 mm 4 mps 754 mmHg 46%
10:00 +25°C° 0 mm 4 mps 755 mmHg 36%
11:00 +27°C° 0 mm 3 mps 754 mmHg 34%
12:00 +28°C° 0 mm 3 mps 754 mmHg 32%
13:00 +30°C° 0 mm 3 mps 753 mmHg 30%
14:00 +29°C° 0 mm 3 mps 753 mmHg 31%
15:00 +29°C° 0 mm 3 mps 752 mmHg 32%
16:00 +29°C° 0 mm 4 mps 752 mmHg 33%
17:00 +27°C° 0 mm 4 mps 752 mmHg 37%
18:00 +25°C° 0 mm 4 mps 753 mmHg 41%
19:00 +24°C° 0 mm 3 mps 753 mmHg 45%
20:00 +22°C° 0 mm 3 mps 754 mmHg 47%
21:00 +21°C° 0 mm 3 mps 754 mmHg 48%
22:00 +21°C° 0 mm 3 mps 754 mmHg 49%
23:00 +20°C° 0 mm 3 mps 754 mmHg 49%

Tomorrow, 9 August, Sunday

Time Temperature Precipitation Wind Pressure Humidity
00:00 +20°C° 0 mm 2 mps 754 mmHg 49%
01:00 +19°C° 0 mm 2 mps 754 mmHg 49%
02:00 +19°C° 0 mm 2 mps 754 mmHg 49%
03:00 +18°C° 0 mm 2 mps 754 mmHg 49%
04:00 +18°C° 0 mm 2 mps 754 mmHg 48%
05:00 +18°C° 0 mm 2 mps 754 mmHg 47%
06:00 +18°C° 0 mm 3 mps 754 mmHg 46%
07:00 +18°C° 0 mm 3 mps 755 mmHg 45%
08:00 +20°C° 0 mm 3 mps 755 mmHg 41%
09:00 +22°C° 0 mm 3 mps 755 mmHg 37%
10:00 +25°C° 0 mm 2 mps 755 mmHg 32%
11:00 +26°C° 0 mm 2 mps 755 mmHg 32%
12:00 +27°C° 0 mm 2 mps 754 mmHg 32%
13:00 +29°C° 0 mm 2 mps 754 mmHg 32%
14:00 +28°C° 0 mm 2 mps 753 mmHg 34%
15:00 +28°C° 0 mm 2 mps 753 mmHg 36%
16:00 +27°C° 0 mm 3 mps 752 mmHg 38%
17:00 +25°C° 0 mm 2 mps 753 mmHg 44%
18:00 +23°C° 0 mm 2 mps 753 mmHg 51%
19:00 +21°C° 0 mm 1 mps 754 mmHg 57%
20:00 +21°C° 0 mm 1 mps 754 mmHg 58%
21:00 +20°C° 0 mm 1 mps 754 mmHg 59%
22:00 +19°C° 0 mm 2 mps 755 mmHg 60%
23:00 +18°C° 0 mm 2 mps 755 mmHg 59%

Day after tomorrow, 10 August, Monday

Time Temperature Precipitation Wind Pressure Humidity
00:00 +18°C° 0 mm 2 mps 755 mmHg 58%
01:00 +18°C° 0 mm 2 mps 755 mmHg 57%
02:00 +17°C° 0 mm 2 mps 754 mmHg 53%
03:00 +17°C° 0 mm 2 mps 754 mmHg 50%
04:00 +16°C° 0 mm 2 mps 754 mmHg 46%
05:00 +16°C° 0 mm 3 mps 755 mmHg 45%
06:00 +14°C° 0 mm 3 mps 755 mmHg 43%
07:00 +14°C° 0 mm 3 mps 756 mmHg 41%
08:00 +17°C° 0 mm 4 mps 756 mmHg 36%
09:00 +20°C° 0 mm 4 mps 756 mmHg 32%
10:00 +22°C° 0 mm 4 mps 757 mmHg 27%
11:00 +24°C° 0 mm 3 mps 756 mmHg 26%
12:00 +25°C° 0 mm 3 mps 755 mmHg 25%
13:00 +27°C° 0 mm 2 mps 755 mmHg 25%
14:00 +27°C° 0 mm 3 mps 754 mmHg 26%
15:00 +26°C° 0 mm 3 mps 754 mmHg 27%
16:00 +26°C° 0 mm 3 mps 754 mmHg 28%
17:00 +24°C° 0 mm 2 mps 754 mmHg 36%
18:00 +21°C° 0 mm 2 mps 754 mmHg 43%
19:00 +19°C° 0 mm 1 mps 754 mmHg 50%
20:00 +19°C° 0 mm 1 mps 755 mmHg 51%
21:00 +17°C° 0 mm 2 mps 755 mmHg 52%
22:00 +17°C° 0 mm 2 mps 756 mmHg 53%
23:00 +16°C° 0 mm 2 mps 756 mmHg 53%

11 August, Tuesday

Time Temperature Precipitation Wind Pressure Humidity
00:00 +16°C° 0 mm 2 mps 755 mmHg 54%
01:00 +15°C° 0 mm 2 mps 755 mmHg 55%
02:00 +15°C° 0 mm 2 mps 755 mmHg 56%
03:00 +15°C° 0 mm 2 mps 755 mmHg 58%
04:00 +15°C° 0 mm 2 mps 755 mmHg 59%
05:00 +15°C° 0 mm 2 mps 755 mmHg 61%
06:00 +15°C° 0 mm 2 mps 755 mmHg 63%
07:00 +15°C° 0 mm 2 mps 756 mmHg 65%
08:00 +18°C° 0 mm 2 mps 756 mmHg 59%
09:00 +20°C° 0 mm 2 mps 756 mmHg 54%
10:00 +24°C° 0 mm 2 mps 757 mmHg 49%
11:00 +24°C° 0 mm 3 mps 756 mmHg 48%
12:00 +25°C° 0 mm 3 mps 755 mmHg 48%
13:00 +25°C° 0 mm 3 mps 754 mmHg 47%
14:00 +25°C° 0 mm 3 mps 754 mmHg 49%
15:00 +24°C° 0 mm 3 mps 754 mmHg 50%
16:00 +24°C° 0 mm 3 mps 753 mmHg 52%
17:00 +22°C° 0 mm 3 mps 754 mmHg 58%
18:00 +20°C° 0 mm 3 mps 754 mmHg 64%
19:00 +19°C° 0 mm 3 mps 754 mmHg 70%
20:00 +18°C° 0 mm 3 mps 755 mmHg 72%
21:00 +18°C° 0 mm 3 mps 755 mmHg 74%
22:00 +18°C° 0 mm 3 mps 756 mmHg 76%
23:00 +18°C° 0 mm 2 mps 756 mmHg 78%

12 August, Wednesday

Time Temperature Precipitation Wind Pressure Humidity
00:00 +18°C° 0 mm 2 mps 756 mmHg 80%
01:00 +18°C° 0 mm 2 mps 755 mmHg 81%
02:00 +18°C° 0 mm 2 mps 755 mmHg 82%
03:00 +17°C° 0 mm 2 mps 755 mmHg 83%
04:00 +18°C° 0 mm 1 mps 755 mmHg 83%
05:00 +18°C° 0 mm 1 mps 755 mmHg 83%
06:00 +18°C° 0 mm 1 mps 756 mmHg 83%
07:00 +18°C° 0 mm 1 mps 756 mmHg 83%
08:00 +21°C° 0 mm 1 mps 756 mmHg 74%
09:00 +23°C° 0 mm 2 mps 757 mmHg 65%
10:00 +25°C° 0 mm 2 mps 757 mmHg 57%
11:00 +26°C° 0 mm 2 mps 756 mmHg 56%
12:00 +26°C° 0 mm 3 mps 756 mmHg 55%
13:00 +27°C° 0 mm 3 mps 755 mmHg 54%
14:00 +26°C° 0 mm 3 mps 754 mmHg 56%
15:00 +26°C° 0 mm 3 mps 754 mmHg 59%
16:00 +25°C° 0 mm 3 mps 754 mmHg 62%
17:00 +24°C° 0 mm 3 mps 754 mmHg 69%
18:00 +21°C° 0 mm 3 mps 755 mmHg 76%
19:00 +20°C° 0 mm 3 mps 755 mmHg 84%
20:00 +20°C° 0 mm 2 mps 755 mmHg 85%
21:00 +20°C° 0 mm 2 mps 756 mmHg 86%
22:00 +19°C° 0 mm 2 mps 756 mmHg 87%
23:00 +20°C° 0 mm 2 mps 756 mmHg 86%

13 August, Thursday

Time Temperature Precipitation Wind Pressure Humidity
00:00 +20°C° 0 mm 2 mps 756 mmHg 85%
01:00 +20°C° 0 mm 2 mps 756 mmHg 84%
02:00 +20°C° 0 mm 2 mps 756 mmHg 84%
03:00 +20°C° 0 mm 2 mps 756 mmHg 84%
04:00 +20°C° 0 mm 2 mps 756 mmHg 84%
05:00 +20°C° 0 mm 2 mps 756 mmHg 83%
06:00 +20°C° 0 mm 2 mps 757 mmHg 81%
07:00 +21°C° 0 mm 2 mps 757 mmHg 80%
08:00 +23°C° 0 mm 2 mps 757 mmHg 75%
09:00 +24°C° 0 mm 3 mps 758 mmHg 69%
10:00 +25°C° 0 mm 3 mps 758 mmHg 64%
11:00 +25°C° 0 mm 3 mps 757 mmHg 61%
12:00 +26°C° 0 mm 4 mps 757 mmHg 58%
13:00 +27°C° 0 mm 4 mps 756 mmHg 56%
14:00 +26°C° 0 mm 4 mps 755 mmHg 58%
15:00 +25°C° 0 mm 4 mps 755 mmHg 61%
16:00 +25°C° 0 mm 4 mps 755 mmHg 63%
17:00 +22°C° 0 mm 3 mps 755 mmHg 71%
18:00 +21°C° 0 mm 3 mps 756 mmHg 79%
19:00 +19°C° 0 mm 2 mps 756 mmHg 87%
20:00 +19°C° 0 mm 3 mps 756 mmHg 88%
21:00 +18°C° 0 mm 3 mps 757 mmHg 90%
22:00 +18°C° 0 mm 3 mps 757 mmHg 91%
23:00 +18°C° 0 mm 3 mps 757 mmHg 91%
Show more